Location: Newark
(60.7728°N, 46.2261°E)
Time: 15:23:15
(UTC+00:00)

ISS - Pass Details

Date: 27 September 2019
Orbit: 411 x 421 km, 51.6° (Epoch: 19 October)

Event Time Altitude Azimuth Distance (km) Brightness Sun altitude
Rises 17:00:42 0° 248° (WSW) 2,346 0.6 -17.2°
Reaches altitude 10° 17:03:16 10° 228° (SW) 1,483 -0.8 -17.5°
Enters shadow 17:05:03 17° 196° (SSW) 1,143 -1.7 -17.7°
